Weather History for McGuire AFB, NJ

Change the Weather History Date:

Monday, September 23, 2013

  Actual Average Record
Temperature  
Mean Temperature 57 °F -  
Max Temperature 67 °F 73 °F 89 °F (2005)
Min Temperature 46 °F 52 °F 45 °F (2014)
Degree Days  
Heating Degree Days 8    
Growing Degree Days 7 (Base 50)    
Moisture  
Dew Point 42 °F    
Average Humidity 61    
Maximum Humidity 80    
Minimum Humidity 42    
Precipitation  
Precipitation 0.00 in - - ()
Sea Level Pressure  
Sea Level Pressure 30.00 in    
Wind  
Wind Speed 9 mph (NW)    
Max Wind Speed 17 mph    
Max Gust Speed 21 mph    
Visibility 10 miles    
Events      
Averages and records for this station are not official NWS values.
T = Trace of Precipitation, MM = Missing Value Source: NWS Daily Summary

Daily Weather History Graph

Daily Weather History Graph

Search for Another Location

Airport:

Trip Planner

Search our weather history database for the weather conditions in past years. The results will help you decide how hot, cold, wet, or windy it might be!

Date:

Astronomy

Sep. 23, 2013 Rise Set
Actual Time 6:47 AM EDT 6:53 PM EDT
Civil Twilight 6:20 AM EDT 7:20 PM EDT
Nautical Twilight 5:48 AM EDT 7:51 PM EDT
Astronomical Twilight 5:16 AM EDT 8:24 PM EDT
Moon 9:23 PM EDT (9/23) 11:03 AM EDT (9/23)
Length of Visible Light 13h 00m
Length of Day
12h 06m
Waning Gibbous, 81% of the Moon is Illuminated
Sep 23
Waning Gibbous
Sep 26
Last Quarter
Oct 4
New
Oct 11
First Quarter
Oct 18
Full

Hourly Weather History & Observations

Time (EDT) Temp. Windchill Dew Point Humidity Pressure Visibility Wind Dir Wind Speed Gust Speed Precip Events Conditions
12:58 AM 50.0 °F - 42.8 °F 76% 29.93 in 10.0 mi NNW 8.1 mph - N/A   Clear
1:58 AM 48.7 °F - 41.7 °F 77% 29.95 in 10.0 mi NNW 8.1 mph - N/A   Clear
2:58 AM 48.4 °F - 40.6 °F 75% 29.95 in 10.0 mi NW 9.2 mph - N/A   Clear
3:58 AM 48.4 °F - 40.1 °F 73% 29.95 in 10.0 mi NW 6.9 mph - N/A   Clear
4:58 AM 48.9 °F - 40.3 °F 72% 29.97 in 10.0 mi NW 10.4 mph - N/A   Clear
5:58 AM 47.3 °F - 40.3 °F 77% 29.98 in 10.0 mi NW 6.9 mph - N/A   Clear
6:58 AM 46.0 °F 43.1 °F 40.3 °F 80% 30.00 in 10.0 mi NW 5.8 mph - N/A   Clear
7:58 AM 51.1 °F - 41.5 °F 70% 30.02 in 10.0 mi NNW 10.4 mph - N/A   Clear
8:58 AM 54.3 °F - 41.4 °F 62% 30.03 in 10.0 mi North 12.7 mph 20.7 mph N/A   Clear
9:58 AM 57.6 °F - 40.5 °F 53% 30.03 in 10.0 mi NNW 17.3 mph - N/A   Clear
10:58 AM 59.0 °F - 40.5 °F 50% 30.02 in 10.0 mi NNW 12.7 mph - N/A   Clear
11:58 AM 61.9 °F - 41.2 °F 47% 30.01 in 10.0 mi NNW 8.1 mph 18.4 mph N/A   Clear
12:58 PM 63.5 °F - 42.3 °F 46% 30.01 in 10.0 mi NNW 12.7 mph - N/A   Clear
1:58 PM 65.5 °F - 43.7 °F 45% 29.99 in 10.0 mi WNW 12.7 mph 18.4 mph N/A   Clear
2:46 PM 68.0 °F - 44.6 °F 43% 29.97 in 10.0 mi NNW 12.7 mph 19.6 mph N/A   Clear
2:58 PM 66.2 °F - 43.7 °F 44% 29.98 in 10.0 mi West 8.1 mph 19.6 mph N/A   Clear
3:02 PM 66.2 °F - 42.8 °F 43% 29.96 in 10.0 mi NW 15.0 mph 20.7 mph N/A   Clear
3:58 PM 66.6 °F - 43.0 °F 42% 29.97 in 10.0 mi NW 11.5 mph - N/A   Clear
4:58 PM 66.2 °F - 43.5 °F 44% 29.97 in 10.0 mi NW 13.8 mph - N/A   Clear
5:58 PM 65.3 °F - 44.2 °F 46% 29.99 in 10.0 mi WNW 10.4 mph 19.6 mph N/A   Clear
6:58 PM 60.4 °F - 44.8 °F 56% 30.00 in 10.0 mi WNW 6.9 mph - N/A   Clear
7:58 PM 56.5 °F - 45.0 °F 65% 30.02 in 10.0 mi WNW 8.1 mph - N/A   Clear
8:58 PM 54.1 °F - 45.0 °F 71% 30.04 in 10.0 mi NW 5.8 mph - N/A   Clear
9:58 PM 53.2 °F - 43.2 °F 69% 30.04 in 10.0 mi NNW 9.2 mph - N/A   Clear
10:58 PM 49.8 °F - 42.4 °F 76% 30.05 in 10.0 mi NNW 6.9 mph - N/A   Clear
11:58 PM 48.6 °F - 42.3 °F 79% 30.04 in 10.0 mi NNW 5.8 mph - N/A   Clear